Weather in Andreykovichi

Russia / Bryansk Oblast     52°23′05″N   33°00′33″E
temp.,
°C
wind,
m/s
gust,
m/s
humid.,
%
clouds,
%
prec.,
mm/h
press.,
hPa
HPBL,
m
26 february, fri
fri2600:00+3wnw48100100 0.0 1022143
03:00+2w49100100 0.0 1022161
06:00+3wsw611100100 0.0 1020241
09:00+3wsw713100100 0.1 1017317
12:00+3w71399100 0.1 1016355
15:00+4w71498100 0.1 1015419
18:00+3w51398100 0.0 1014439
21:00+2w61491100 0.0 1014424
27 february, sat
sat2700:00+1wnw61391100 0.0 1013415
03:00+1w5109399 0.0 1013313
06:00+1w51195100 0.1 1012432
09:00+1wnw51097100 0.1 1013404
12:00+2wnw5997100 0.1 1013459
15:00+1nw4898100 0.3 1014384
18:00+1nw3798100 0.3 1014308
21:00+1nw4896100 0.3 1016290
28 february, sun
sun2800:000nnw5998100 0.0 1017436
03:000nnw4898100 0.1 1019399
06:000nnw4890100 0.1 1019489
09:00−1nw589097 0.1 1020502
12:00+1nw577999 0.1 1020831
15:00+1nw478999 0.1 1020564
18:000nw4885100 0.2 1020570
21:00−1wnw3697100 0.4 1020316
1 march, mon
mon100:00−1wnw129884 0.2 102131
03:00−2n229661 0.2 102326
06:00−2nw239744 0.0 102449
09:00−1nnw369465 0.1 1026330
12:00+2nw358693 0.0 1026490
15:00+3wnw478192 0.1 1027690
18:00+1wnw499092 0.1 1026370
21:00+1w5118996 0.1 1026416
2 march, tue
tue200:00+1w51195100 0.0 1024360
03:00+1w51096100 0.0 1022358
06:00+2wnw61194100 0.0 1021534
09:00+2wnw61291100 0.0 1020501
12:00+3wnw71286100 0.0 1019541
15:00+5nw8127997 0.0 1019896
18:00+4nw6148494 0.1 1018735
21:00+2nw6148596 0.1 1020720